Regional Weather Roundup
Issued by NWS Albany, NY

Home | Current Version | Previous Version | Text Only | Print | Product List | Glossary On
Versions: 1 2 3 4 5 6 7 8 9 10 11 12 13 14 15 16 17 18 19 20 21 22 23 24 25 26 27 28 29 30 31 32 33 34 35 36 37 38 39 40 41 42 43 44 45 46 47 48 49 50
000
ASUS41 KALY 260110
RWRALY

NEW YORK STATE HOURLY WEATHER ROUNDUP
NATIONAL WEATHER SERVICE ALBANY NY
800 PM EST THU DEC 25 2014

NOTE: "FAIR" INDICATES FEW OR NO CLOUDS BELOW 12,000 FEET WITH NO
SIGNIFICANT WEATHER AND/OR NO OBSTRUCTIONS TO VISIBILITY.

NYZ032-033-038>043-046>054-057>066-NYZ062>081-260200-
EAST


CITY           SKY/WX    TMP DP  RH WIND       PRES   REMARKS
ALBANY         CLOUDY    43  31  62 NW9       29.99R
GLENS FALLS    CLOUDY    43  26  51 W8G17     29.95R
POUGHKEEPSIE   MOCLDY    47  28  47 W13       30.00R
NEWBURGH       PTCLDY    45  30  57 NW14G26   30.02R
MONTGOMERY     CLEAR     46  26  45 NW17G28   30.00R
WHITE PLAINS   CLEAR     45  28  51 NW22G30   29.99R
ISLIP          PTCLDY    47  29  49 W9G21     30.00R
NEW YORK CITY  PTCLDY    48  30  49 W13G22    30.03R
CENTRAL PARK   CLEAR     48  29  47 W9G16     30.06R
$$

NYZ005>009-017-018-044>046-055-056-260200-
CENTRAL


CITY           SKY/WX    TMP DP  RH WIND       PRES   REMARKS
FULTON         CLOUDY    41  28  60 W15G25    30.04R
SYRACUSE       CLOUDY    41  28  60 W17       30.04R
ROME           CLOUDY    40  30  67 W15       30.03R WCI  32
ELMIRA         CLOUDY    41  29  62 W7        30.06R
BINGHAMTON     CLOUDY    38  28  67 W17G24    30.01R WCI  28
MONTICELLO     CLOUDY    39  28  65 W13       30.00R WCI  32
$$

NYZ026>034-041>043-260200-
NORTH


CITY           SKY/WX    TMP DP  RH WIND       PRES   REMARKS
WATERTOWN      CLOUDY    42  30  62 SW15G26   30.00R
FORT DRUM      NOT AVBL
MASSENA        CLOUDY    39  29  67 SW20G28   29.89R WCI  29
SARANAC LAKE   FLURRIES  35  27  72 W14G30    29.86R WCI  26
PLATTSBURGH    PTCLDY    41  28  60 W18G33    29.81R
$$

NYZ001>004-010>016-019>021-260200-
WEST


CITY           SKY/WX    TMP DP  RH WIND       PRES   REMARKS
NIAGARA FALLS  CLOUDY    39  32  76 SW20G28   30.05R WCI  29
BUFFALO        CLOUDY    39  32  76 W18G30    30.06R WCI  30
DUNKIRK        CLOUDY    39  31  72 W17G28    30.12R WCI  30
JAMESTOWN      CLOUDY    34  27  75 W12       30.09R WCI  25
WELLSVILLE     CLOUDY    34  25  69 W12       30.06R WCI  25
ROCHESTER      CLOUDY    41  32  70 W18       30.05R
PENN YAN       CLOUDY    40  30  67 W12G20    30.05R WCI  33
$$

             KEY
       WCI = WIND CHILL INDEX
       VSB = VISIBILITY
       HX  = HEAT INDEX
$$


USA.gov is the U.S. government's official web portal to all federal, state and local government web resources and services.